[[{"header":{"parameterUnit":"m.s-1","parameterCategory":1,"la1":30.2992,"la2":30.254,"lo1":-89.0895,"lo2":-89.0443,"dy":0.0025,"dx":0.0025,"nx":19,"ny":19,"refTime":"2026-04-03T03:00:00:Z","depth":0,"parameterNumber":2,"parameterNumberName":"U-component_of_WINDS"},"data":[0,0,0,-4.3175,-4.3176,-4.3235,-4.3236,-4.333,-4.3331,0,0,0,0,0,0,0,0,0,0,0,-4.3168,-4.3169,-4.3175,-4.3176,-4.3235,-4.3236,-4.333,-4.3331,0,0,0,0,0,0,0,0,0,0,0,-4.3168,-4.3169,-4.317,-4.3177,-4.3235,-4.3236,-4.333,-4.3278,0,0,0,0,0,0,0,0,0,0,-4.3218,-4.3223,-4.3169,-4.317,-4.3177,-4.3235,-4.3236,-4.3276,-4.3282,-4.3312,0,-4.3341,0,-4.3338,-4.3339,-4.3339,0,0,0,-4.3168,-4.3218,-4.3224,-4.3171,-4.3178,-4.3235,-4.3206,-4.3279,-4.3286,-4.332,-4.3342,-4.3345,-4.3339,-4.3339,-4.334,-4.354,-4.3541,0,0,-4.3165,-4.3185,-4.3219,-4.3229,-4.322,-4.3205,-4.3208,-4.3283,-4.3308,-4.3342,-4.3347,-4.3341,-4.334,-4.3341,-4.3538,-4.354,0,0,0,-4.3161,-4.3183,-4.3187,-4.3225,-4.3235,-4.3207,-4.3211,-4.3305,-4.3304,-4.3348,-4.3342,-4.3341,-4.3342,-4.3537,-4.3539,-4.3624,0,0,0,-4.3159,-4.3181,-4.3186,-4.3199,-4.3234,-4.327,-4.3232,-4.3299,-4.3307,-4.3341,-4.3341,-4.3343,-4.3535,-4.3538,-4.3618,-4.366,0,0,0,-4.3161,-4.3181,-4.3193,-4.32,-4.3226,-4.3269,-4.3272,-4.33,-4.3304,-4.3339,-4.3344,-4.3534,-4.3538,-4.3613,-4.3652,-4.3718,0,0,0,-4.3168,-4.3267,-4.3195,-4.3303,-4.3225,-4.3321,-4.3271,-4.3342,-4.3382,-4.3341,-4.3536,-4.3539,-4.3612,-4.3647,-4.3713,-4.3777,-4.3806,0,0,-4.3304,-4.3284,-4.3346,-4.3283,-4.3397,-4.331,-4.3436,-4.3454,-4.3439,-4.3507,-4.3512,-4.362,-4.3651,-4.3717,-4.3961,-4.3984,0,0,0,-4.3396,-4.3441,-4.3467,-4.3506,-4.3523,-4.354,-4.3537,-4.3544,-4.3601,-4.3478,-4.3662,-4.368,-4.3717,-4.3747,-4.3767,-4.3798,-4.3554,-4.3553,-4.3553,-4.3615,-4.3592,-4.3693,-4.3677,-4.3716,-4.3713,-4.3743,-4.3751,-4.3715,-4.376,-4.3779,-4.393,-4.3966,-4.398,-4.4013,-4.3812,-4.3812,-4.3812,-4.3813,-4.3811,-4.3871,-4.3823,-4.3903,-4.3878,-4.3946,-4.3947,-4.392,-4.398,-4.3913,-4.3945,-4.3874,-4.4006,-4.4034,-4.3819,-4.3818,-4.3817,-4.3816,-4.3816,-4.3951,-4.3976,-4.3983,-4.4039,-4.4085,-4.4066,-4.4126,-4.4101,-4.4078,-4.411,-4.4128,-4.4126,-4.4121,-4.412,-4.4121,-4.4121,-4.4122,-4.4122,-4.4123,-4.4093,-4.4099,-4.4152,-4.418,-4.4203,-4.423,-4.4229,-4.4251,-4.4269,-4.4246,-4.4246,-4.4206,-4.4024,-4.3978,-4.4131,-4.4129,-4.4128,-4.4127,-4.4127,-4.4299,-4.4249,-4.4331,-4.4354,-4.4385,-4.4433,-4.4401,-4.4448,-4.4463,-4.4494,-4.4448,-4.4318,-4.4295,-4.4279,-4.4241,-4.4453,-4.4453,-4.4453,-4.4453,-4.4417,-4.4403,-4.4482,-4.4521,-4.4556,-4.4537,-4.4632,-4.4633,-4.4626,-4.4634,-4.46,-4.4548,-4.4534,-4.452,-4.4499,-4.4463,-4.4726,-4.4726,-4.4726,-4.4541,-4.4531,-4.4616,-4.4609,-4.4631,-4.4652,-4.474,-4.4788,-4.477,-4.4737,-4.464,-4.4628,-4.4544,-4.4518,-4.4481,-4.4449,-4.4382,0,0]},{"header":{"parameterUnit":"m.s-1","parameterCategory":1,"la1":30.2992,"la2":30.254,"lo1":-89.0895,"lo2":-89.0443,"dy":0.0025,"dx":0.0025,"nx":19,"ny":19,"refTime":"2026-04-03T03:00:00:Z","depth":0,"parameterNumber":3,"parameterNumberName":"V-component_of_WINDS"},"data":[0,0,0,3.5575,3.5575,3.5573,3.5573,3.5576,3.5576,0,0,0,0,0,0,0,0,0,0,0,3.558,3.5581,3.5575,3.5575,3.5573,3.5573,3.5576,3.5576,0,0,0,0,0,0,0,0,0,0,0,3.558,3.5581,3.5581,3.5575,3.5573,3.5573,3.5576,3.5575,0,0,0,0,0,0,0,0,0,0,3.5576,3.5586,3.5581,3.5581,3.5575,3.5573,3.5573,3.5575,3.5575,3.558,0,3.5586,0,3.5581,3.5577,3.5577,0,0,0,3.5571,3.5586,3.5581,3.5581,3.5575,3.5573,3.5573,3.5575,3.5575,3.558,3.5586,3.5586,3.5581,3.5577,3.5577,3.5623,3.5624,0,0,3.5571,3.5582,3.5581,3.5582,3.5584,3.5573,3.5573,3.5575,3.5582,3.5586,3.5586,3.5582,3.5577,3.5577,3.5623,3.5623,0,0,0,3.5574,3.5582,3.5577,3.5582,3.5581,3.5573,3.5573,3.5581,3.5579,3.5586,3.5582,3.5577,3.5577,3.5622,3.5623,3.5656,0,0,0,3.5574,3.5584,3.5578,3.5584,3.5581,3.5581,3.5579,3.5579,3.5579,3.5582,3.5577,3.5577,3.5622,3.5623,3.5654,3.567,0,0,0,3.5579,3.5584,3.5586,3.5585,3.5584,3.5581,3.5579,3.5579,3.5576,3.5577,3.5577,3.5622,3.5623,3.5653,3.5667,3.5688,0,0,0,3.5586,3.5612,3.5587,3.5614,3.5584,3.5602,3.5579,3.559,3.5594,3.5577,3.5622,3.5623,3.5652,3.5665,3.5686,3.5709,3.5719,0,0,3.5625,3.5617,3.5632,3.561,3.5635,3.5601,3.5631,3.5622,3.5611,3.562,3.5621,3.5655,3.5667,3.5688,3.5768,3.5776,0,0,0,3.5648,3.566,3.5664,3.567,3.5667,3.5666,3.5652,3.565,3.5658,3.5618,3.5667,3.5673,3.5685,3.5696,3.5702,3.5713,3.5628,3.5628,3.5628,3.5717,3.5705,3.5731,3.5719,3.5725,3.5713,3.5717,3.5712,3.5694,3.5706,3.5709,3.576,3.5772,3.5777,3.5789,3.5718,3.5718,3.5719,3.5719,3.5775,3.579,3.5771,3.5789,3.5775,3.579,3.578,3.5768,3.578,3.5755,3.5765,3.5741,3.5787,3.5796,3.5721,3.5721,3.572,3.572,3.572,3.582,3.5826,3.5825,3.5835,3.5844,3.583,3.5844,3.583,3.5816,3.5826,3.583,3.5829,3.5829,3.5828,3.5829,3.5829,3.5829,3.5829,3.5829,3.5869,3.5866,3.5881,3.5883,3.5887,3.589,3.5881,3.5884,3.5884,3.5873,3.5873,3.5857,3.5793,3.5779,3.5832,3.5831,3.5831,3.5831,3.5831,3.5934,3.5918,3.5941,3.5945,3.5948,3.596,3.5943,3.5952,3.5952,3.596,3.5942,3.5897,3.5887,3.5881,3.587,3.5943,3.5943,3.5943,3.5943,3.5975,3.5969,3.5991,3.6,3.6007,3.5995,3.6022,3.6017,3.6007,3.6007,3.5994,3.5977,3.5972,3.5965,3.5958,3.5947,3.6038,3.6038,3.6038,3.6016,3.6011,3.6037,3.603,3.6032,3.6035,3.6061,3.6072,3.6057,3.6042,3.6008,3.6004,3.5975,3.5966,3.5951,3.5939,3.5919,0,0]}]]